North Adams, MA

6:46 AM EST on December 05, 2016 (GMT -0500)
Harriman And West

Weather History for KAQW - March, 2014

Change the Weather History Date:

Tuesday, March 25, 2014

  Actual Average Record
Temperature  
Mean Temperature 22 °F -  
Max Temperature 35 °F 44 °F 64 °F (2003)
Min Temperature 10 °F 26 °F 10 °F (2014)
Degree Days  
Heating Degree Days 43    
Moisture  
Dew Point 8 °F    
Average Humidity 55    
Maximum Humidity 84    
Minimum Humidity 31    
Precipitation  
Precipitation 0.00 in - - ()
Sea Level Pressure  
Sea Level Pressure 30.05 in    
Wind  
Wind Speed 3 mph (SSW)    
Max Wind Speed 13 mph    
Max Gust Speed 21 mph    
Visibility 10 miles    
Events      
Averages and records for this station are not official NWS values.
T = Trace of Precipitation, MM = Missing Value Source: NWS Daily Summary

Daily Weather History Graph

Daily Weather History Graph

Search for Another Location

Airport or City:

Trip Planner

Search our weather history database for the weather conditions in past years. The results will help you decide how hot, cold, wet, or windy it might be!

Date:

Astronomy

Mar. 25, 2014 Rise Set
Actual Time 6:47 AM EDT 7:10 PM EDT
Civil Twilight 6:18 AM EDT 7:39 PM EDT
Nautical Twilight 5:45 AM EDT 8:12 PM EDT
Astronomical Twilight 5:11 AM EDT 8:46 PM EDT
Moon 3:13 AM EDT (3/25) 1:31 PM EDT (3/25)
Length of Visible Light 13h 20m
Length of Day
12h 23m
Waning Crescent, 32% of the Moon is Illuminated
Mar 25
Waning Crescent
Mar 30
New
Apr 7
First Quarter
Apr 15
Full
Apr 22
Last Quarter

Hourly Weather History & Observations

Time (EDT) Temp. Windchill Dew Point Humidity Pressure Visibility Wind Dir Wind Speed Gust Speed Precip Events Conditions
12:52 AM 16.0 °F 8.8 °F 8.1 °F 71% 30.14 in 10.0 mi WNW 4.6 mph - N/A   Clear
1:52 AM 16.0 °F - 7.0 °F 68% 30.13 in 10.0 mi Calm Calm - N/A   Clear
2:52 AM 14.0 °F - 7.0 °F 74% 30.12 in 10.0 mi Calm Calm - N/A   Clear
3:52 AM 10.9 °F - 7.0 °F 84% 30.12 in 10.0 mi Calm Calm - N/A   Clear
4:52 AM 10.9 °F - 6.1 °F 81% 30.12 in 10.0 mi Calm Calm - N/A   Clear
5:52 AM 12.0 °F - 6.1 °F 77% 30.12 in 10.0 mi Calm Calm - N/A   Mostly Cloudy
6:52 AM 10.9 °F - 7.0 °F 84% 30.14 in 10.0 mi Calm Calm - N/A   Overcast
7:52 AM 15.1 °F 5.2 °F 8.1 °F 74% 30.13 in 10.0 mi ESE 6.9 mph - N/A   Overcast
8:52 AM 18.0 °F 7.7 °F 8.1 °F 65% 30.12 in 10.0 mi East 8.1 mph - N/A   Overcast
9:52 AM 24.1 °F - 8.1 °F 51% 30.10 in 10.0 mi Calm Calm - N/A   Overcast
10:52 AM 26.1 °F 20.5 °F 3.9 °F 39% 30.09 in 10.0 mi Variable 4.6 mph - N/A   Mostly Cloudy
11:52 AM 28.9 °F 22.8 °F 6.1 °F 38% 30.06 in 10.0 mi Variable 5.8 mph - N/A   Clear
12:52 PM 30.9 °F 21.2 °F 5.0 °F 33% 30.06 in 10.0 mi WSW 12.7 mph 20.7 mph N/A   Partly Cloudy
1:52 PM 30.9 °F 22.2 °F 5.0 °F 33% 30.04 in 10.0 mi WSW 10.4 mph 17.3 mph N/A   Mostly Cloudy
2:52 PM 34.0 °F 31.0 °F 6.1 °F 31% 30.01 in 10.0 mi WSW 3.5 mph - N/A   Partly Cloudy
3:52 PM 34.0 °F 27.2 °F 7.0 °F 32% 29.99 in 10.0 mi WSW 8.1 mph 16.1 mph N/A   Mostly Cloudy
4:52 PM 34.0 °F 25.5 °F 8.1 °F 34% 29.97 in 10.0 mi SSW 11.5 mph 16.1 mph N/A   Overcast
5:52 PM 33.1 °F 30.0 °F 7.0 °F 34% 29.96 in 10.0 mi West 3.5 mph - N/A   Overcast
6:52 PM 33.1 °F - 7.0 °F 34% 29.95 in 10.0 mi Calm Calm - N/A   Partly Cloudy
7:52 PM 28.9 °F 25.2 °F 10.9 °F 47% 29.94 in 10.0 mi ENE 3.5 mph - N/A   Clear
8:52 PM 27.0 °F - 17.1 °F 66% 29.95 in 10.0 mi Calm Calm - N/A   Clear
9:52 PM 27.0 °F - 17.1 °F 66% 29.96 in 10.0 mi Calm Calm - N/A   Clear
10:52 PM 28.9 °F 23.9 °F 12.0 °F 49% 29.96 in 10.0 mi East 4.6 mph - N/A   Clear
11:52 PM 28.9 °F 25.2 °F 12.0 °F 49% 29.93 in 10.0 mi East 3.5 mph - N/A   Clear